C/2022 P1 ( NEOWISE )

Japanese version
Home page
Updated on January 9, 2023

---------------------------------------------------------------------

* Profile

Discovery Date August 8, 2022
Magnitude 18 mag
Discoverer Near-Earth Object Wide-field Infrared Survey Explorer

* Pictures

* Orbital Elements

Epoch 2023 Feb. 25.0 TT = JDT 2460000.5
T 2022 Nov. 28.48165 TT                                 Rudenko
q   1.5951921            (2000.0)            P               Q
n   0.01247256     Peri.  249.93894     +0.67040000     -0.71938657
a  18.4147442      Node   205.08211     -0.41149352     -0.56432606
e   0.9133742      Incl.  154.60673     -0.61744386     -0.40499268
P  79.0
>From 599 observations 2022 Aug. 8-Nov. 14, mean residual 0".4.

* Finding Charts

* Magnitudes Graph

        m1 = 3.0 + 5 log d + 30 log r

---------------------------------------------------------------------

The orbital elements are published on M.P.E.C. 2022-W269.
The charts are made with StellaNavigator Ver.10 (AstroArts).
The magnitudes graphs are made with Comet for Windows.

---------------------------------------------------------------------

Copyright(C) Seiichi Yoshida (comet@aerith.net). All rights reserved.